Location: Les Coudrans
(46.1056°N, 1.1158°W)
Time: 18:41:10
(UTC+00:00)

ATLAS CENTAUR R/B - Pass Details

Date: 03 March 2021
Orbit: 475 x 670 km, 64.7° (Epoch: 30 March)

Event Time Altitude Azimuth Distance (km) Brightness Sun altitude
Rises 18:17:57 0° 179° (S) 2,523 4.8 -5.0°
Reaches altitude 10° 18:20:30 10° 162° (SSE) 1,640 3.6 -5.4°
Maximum altitude 18:23:09 19° 114° (ESE) 1,176 2.5 -5.9°
Drops below altitude 10° 18:25:49 10° 67° (ENE) 1,651 3.2 -6.3°
Enters shadow 18:27:02 - 57° (ENE) 2,054 3.7 -6.6°
